This demonstration page uses our WeatherBlox Daily Observations layout. Learn more.

38.88101, -77.10428

Hourly Observations for March 25, 2017

Temp ( °F °C ) Dew Point ( °F °C ) Humidity (%) Winds ( mph kmh ) Pressure ( in mb ) Visibility ( mi km ) Precip ( " mm )
12:52 am 00:52 Clear 57 13.9 47 8.3 69 69 S 13 20 30.18 1022 10 16.09344 0 0
1:52 am 01:52 Clear 56 13.3 47 8.3 72 72 S 12 19 30.15 1021 10 16.09344 0 0
2:52 am 02:52 Clear 57 13.9 48 8.9 72 72 S 12 19 30.15 1021 10 16.09344 0 0
3:52 am 03:52 Clear 56 13.3 48 8.9 75 75 S 10 17 30.12 1020 10 16.09344 0 0
4:52 am 04:52 Mostly Cloudy 56 13.3 48 8.9 75 75 S 8 13 30.15 1021 10 16.09344 0 0
5:52 am 05:52 Mostly Cloudy 56 13.3 48 8.9 75 75 S 9 15 30.15 1021 10 16.09344 0 0
6:52 am 06:52 Cloudy 55 12.8 48 8.9 77 77 S 8 13 30.18 1022 10 16.09344 0 0
7:52 am 07:52 Cloudy 56 13.3 49 9.4 77 77 S 7 11 30.18 1022 10 16.09344 0 0
8:52 am 08:52 Cloudy 59 15 49 9.4 69 69 S 9 15 30.18 1022 10 16.09344 0 0
9:52 am 09:52 Mostly Cloudy 62 16.7 50 10 65 65 S 9 15 30.18 1022 10 16.09344 0 0
10:52 am 10:52 Mostly Cloudy 65 18.3 51 10.6 61 61 S 12 19 30.18 1022 10 16.09344 0 0
11:52 am 11:52 Cloudy 67 19.4 51 10.6 57 57 S 13 20 30.18 1022 10 16.09344 0 0
12:52 pm 12:52 Cloudy 69 20.6 52 11.1 55 55 S 10 17 30.15 1021 10 16.09344 0 0
1:52 pm 13:52 Cloudy 73 22.8 53 11.7 50 50 SSE 8 13 30.15 1021 10 16.09344 0 0
2:52 pm 14:52 Cloudy 77 25 53 11.7 43 43 S 6 9 30.12 1020 10 16.09344 0 0
3:52 pm 15:52 Mostly Cloudy 78 25.6 52 11.1 40 40 Calm 30.12 1020 10 16.09344 0 0
4:52 pm 16:52 Mostly Cloudy 76 24.4 55 12.8 48 48 Calm 30.12 1020 10 16.09344 0 0
5:52 pm 17:52 Cloudy 77 25 51 10.6 40 40 Calm 30.12 1020 10 16.09344 0 0
6:52 pm 18:52 Cloudy 72 22.2 52 11.1 50 50 ENE 3 6 30.12 1020 10 16.09344 0 0
7:52 pm 19:52 Cloudy 72 22.2 51 10.6 48 48 ESE 9 15 30.15 1021 10 16.09344 0 0
8:52 pm 20:52 Cloudy 70 21.1 51 10.6 51 51 ESE 12 19 30.15 1021 10 16.09344 0 0
9:52 pm 21:52 Mostly Cloudy 67 19.4 52 11.1 59 59 SSW 8 13 30.15 1021 10 16.09344 0 0
10:52 pm 22:52 Partly Cloudy 65 18.3 52 11.1 63 63 S 8 13 30.18 1022 10 16.09344 0 0
11:52 pm 23:52 Mostly Cloudy 60 15.6 50 10 70 70 ENE 22 35 30.18 1022 10 16.09344 0 0

Powered by AerisWeather